ITY575 LSGG-LIRF

Flight info

Callsign ITY575
Flight time 0h 58m
Altitude 37000
Route MEDAM DCT NITAM DCT MOGBO DCT ELB DCT ELKAP
Aircraft A320/M-SDE3FGHIRWY/LB1

Departure

Time 2026-02-18 09:19
Airport Geneva International Airport (LSGG)

Arrival

Time 2026-02-18 10:17
Airport Rome–Fiumicino Leonardo da Vinci International Airport (LIRF)
Time Latitude Longitude Altitude Speed Heading
2026-02-18 09:02 46.23102 6.10666 1393 ft 0 kts 135°
2026-02-18 09:09 46.23106 6.10661 1393 ft 2 kts 134°
2026-02-18 09:09 46.23126 6.10615 1399 ft 3 kts 87°
2026-02-18 09:09 46.23121 6.10593 1404 ft 2 kts 45°
2026-02-18 09:10 46.23111 6.10578 1399 ft 1 kts 45°
2026-02-18 09:10 46.23109 6.10576 1401 ft 0 kts 45°
2026-02-18 09:12 46.23113 6.10582 1399 ft 3 kts 45°
2026-02-18 09:13 46.23140 6.10620 1402 ft 8 kts 45°
2026-02-18 09:13 46.23276 6.10786 1393 ft 18 kts 20°
2026-02-18 09:13 46.23383 6.10753 1397 ft 16 kts 316°
2026-02-18 09:14 46.23471 6.10736 1385 ft 15 kts 41°
2026-02-18 09:14 46.23555 6.10859 1391 ft 20 kts 45°
2026-02-18 09:14 46.23663 6.11019 1388 ft 24 kts 45°
2026-02-18 09:14 46.23787 6.11199 1379 ft 27 kts 46°
2026-02-18 09:15 46.23914 6.11388 1373 ft 26 kts 45°
2026-02-18 09:15 46.24043 6.11578 1370 ft 27 kts 45°
2026-02-18 09:15 46.24173 6.11768 1364 ft 27 kts 45°
2026-02-18 09:15 46.24300 6.11955 1363 ft 25 kts 46°
2026-02-18 09:16 46.24410 6.12115 1369 ft 20 kts 45°
2026-02-18 09:16 46.24493 6.12239 1372 ft 15 kts 45°
2026-02-18 09:16 46.24578 6.12362 1371 ft 22 kts 45°
2026-02-18 09:16 46.24689 6.12525 1364 ft 24 kts 46°
2026-02-18 09:17 46.24810 6.12675 1362 ft 22 kts 20°
2026-02-18 09:17 46.24998 6.12696 1371 ft 6 kts 308°
2026-02-18 09:17 46.24997 6.12652 1371 ft 3 kts 247°
2026-02-18 09:18 46.24979 6.12618 1372 ft 11 kts 227°
2026-02-18 09:18 46.24775 6.12322 1372 ft 76 kts 225°
2026-02-18 09:18 46.24263 6.11565 1374 ft 132 kts 225°
2026-02-18 09:18 46.23514 6.10471 1466 ft 166 kts 225°
2026-02-18 09:19 46.22678 6.09335 2120 ft 165 kts 224°
2026-02-18 09:19 46.21867 6.08176 2806 ft 169 kts 225°
2026-02-18 09:19 46.20990 6.06873 3113 ft 193 kts 224°
2026-02-18 09:19 46.19998 6.05398 3417 ft 217 kts 224°
2026-02-18 09:20 46.18886 6.03751 3816 ft 241 kts 224°
2026-02-18 09:20 46.17689 6.01985 4580 ft 249 kts 223°
2026-02-18 09:20 46.16475 6.00202 5537 ft 249 kts 224°
2026-02-18 09:20 46.15262 5.98406 6479 ft 251 kts 226°
2026-02-18 09:21 46.14025 5.96609 7326 ft 255 kts 221°
2026-02-18 09:21 46.10552 5.95371 8825 ft 283 kts 172°
2026-02-18 09:21 46.08734 5.96590 9602 ft 298 kts 144°
2026-02-18 09:22 46.07445 5.98983 10300 ft 312 kts 115°
2026-02-18 09:22 46.06719 6.01952 10991 ft 318 kts 109°
2026-02-18 09:22 46.05306 6.08284 11726 ft 354 kts 110°
2026-02-18 09:23 46.04219 6.11550 12052 ft 369 kts 124°
2026-02-18 09:23 46.02598 6.14440 12641 ft 374 kts 138°
2026-02-18 09:23 46.00597 6.16768 13280 ft 377 kts 147°
2026-02-18 09:23 45.98470 6.19009 13921 ft 382 kts 146°
2026-02-18 09:24 45.96319 6.21277 14515 ft 386 kts 146°
2026-02-18 09:24 45.94141 6.23576 15155 ft 390 kts 146°
2026-02-18 09:24 45.91949 6.25892 15801 ft 393 kts 146°
2026-02-18 09:24 45.89737 6.28229 16434 ft 396 kts 146°
2026-02-18 09:25 45.87508 6.30585 17037 ft 400 kts 146°
2026-02-18 09:25 45.83025 6.35358 18198 ft 408 kts 145°
2026-02-18 09:25 45.80732 6.37800 18721 ft 412 kts 145°
2026-02-18 09:26 45.78418 6.40260 19232 ft 416 kts 146°
2026-02-18 09:26 45.76084 6.42737 19745 ft 420 kts 146°
2026-02-18 09:26 45.73719 6.45240 20254 ft 424 kts 146°
2026-02-18 09:26 45.71335 6.47758 20766 ft 428 kts 146°
2026-02-18 09:27 45.68930 6.50297 21278 ft 432 kts 146°
2026-02-18 09:27 45.66506 6.52857 21777 ft 435 kts 147°
2026-02-18 09:27 45.64058 6.55441 22263 ft 439 kts 147°
2026-02-18 09:27 45.61621 6.58009 22711 ft 443 kts 147°
2026-02-18 09:28 45.59134 6.60627 23178 ft 446 kts 147°
2026-02-18 09:28 45.56623 6.63265 23591 ft 450 kts 147°
2026-02-18 09:28 45.54096 6.65918 23963 ft 453 kts 147°
2026-02-18 09:28 45.51550 6.68585 24360 ft 456 kts 147°
2026-02-18 09:29 45.48980 6.71268 24731 ft 459 kts 147°
2026-02-18 09:29 45.43796 6.76656 25443 ft 464 kts 148°
2026-02-18 09:29 45.41203 6.79294 25776 ft 466 kts 148°
2026-02-18 09:30 45.38541 6.81961 26138 ft 469 kts 148°
2026-02-18 09:30 45.35858 6.84628 26452 ft 472 kts 149°
2026-02-18 09:30 45.33160 6.87303 26800 ft 474 kts 149°
2026-02-18 09:30 45.30450 6.89991 27140 ft 477 kts 148°
2026-02-18 09:31 45.27728 6.92702 27444 ft 479 kts 148°
2026-02-18 09:31 45.25149 6.95751 27766 ft 486 kts 139°
2026-02-18 09:31 45.22728 6.99120 28109 ft 488 kts 138°
2026-02-18 09:31 45.20331 7.02447 28413 ft 490 kts 138°
2026-02-18 09:32 45.17884 7.05826 28706 ft 493 kts 139°
2026-02-18 09:32 45.15415 7.09215 28974 ft 495 kts 139°
2026-02-18 09:32 45.12935 7.12613 29271 ft 497 kts 139°
2026-02-18 09:32 45.10535 7.16171 29551 ft 502 kts 131°
2026-02-18 09:33 45.08442 7.20139 29824 ft 505 kts 126°
2026-02-18 09:33 45.04386 7.28320 30269 ft 510 kts 126°
2026-02-18 09:33 45.02371 7.32378 30465 ft 512 kts 127°
2026-02-18 09:34 45.00321 7.36495 30666 ft 513 kts 127°
2026-02-18 09:34 44.98194 7.40542 30933 ft 512 kts 132°
2026-02-18 09:34 44.95761 7.44188 31203 ft 509 kts 138°
2026-02-18 09:34 44.93242 7.47695 31457 ft 509 kts 138°
2026-02-18 09:35 44.90720 7.51211 31712 ft 510 kts 138°
2026-02-18 09:35 44.88203 7.54731 31978 ft 510 kts 138°
2026-02-18 09:35 44.85686 7.58250 32249 ft 510 kts 138°
2026-02-18 09:35 44.83169 7.61768 32537 ft 510 kts 138°
2026-02-18 09:36 44.80681 7.65235 32777 ft 510 kts 138°
2026-02-18 09:36 44.78155 7.68745 33030 ft 511 kts 139°
2026-02-18 09:36 44.75628 7.72249 33290 ft 511 kts 139°
2026-02-18 09:36 44.73096 7.75753 33534 ft 511 kts 139°
2026-02-18 09:37 44.70562 7.79257 33807 ft 510 kts 139°
2026-02-18 09:37 44.65504 7.86246 34308 ft 510 kts 139°
2026-02-18 09:37 44.62976 7.89734 34556 ft 509 kts 139°
2026-02-18 09:38 44.60451 7.93215 34810 ft 508 kts 139°
2026-02-18 09:38 44.57964 7.96636 35120 ft 507 kts 139°
2026-02-18 09:38 44.55445 8.00098 35347 ft 507 kts 139°
2026-02-18 09:38 44.52926 8.03559 35548 ft 507 kts 139°
2026-02-18 09:39 44.50407 8.07015 35750 ft 507 kts 139°
2026-02-18 09:39 44.47887 8.10463 35938 ft 506 kts 139°
2026-02-18 09:39 44.42845 8.17349 35999 ft 506 kts 139°
2026-02-18 09:40 44.37805 8.24209 35981 ft 505 kts 140°
2026-02-18 09:40 44.32796 8.31007 35981 ft 505 kts 140°
2026-02-18 09:41 44.25212 8.41279 35977 ft 508 kts 139°
2026-02-18 09:42 44.20138 8.48149 35972 ft 508 kts 140°
2026-02-18 09:42 44.15056 8.54999 35972 ft 508 kts 140°
2026-02-18 09:43 44.10001 8.61780 35969 ft 508 kts 140°
2026-02-18 09:43 44.04901 8.68599 35966 ft 508 kts 140°
2026-02-18 09:44 43.99802 8.75413 35960 ft 509 kts 140°
2026-02-18 09:44 43.94697 8.82228 35964 ft 510 kts 140°
2026-02-18 09:45 43.89620 8.88995 35964 ft 510 kts 140°
2026-02-18 09:45 43.81933 8.99186 35960 ft 510 kts 140°
2026-02-18 09:46 43.76805 9.05964 35961 ft 510 kts 140°
2026-02-18 09:46 43.71705 9.12695 35964 ft 511 kts 140°
2026-02-18 09:47 43.66556 9.19466 35964 ft 511 kts 140°
2026-02-18 09:47 43.61404 9.26218 35976 ft 511 kts 140°
2026-02-18 09:48 43.56243 9.32958 35975 ft 511 kts 140°
2026-02-18 09:48 43.51085 9.39694 35985 ft 511 kts 140°
2026-02-18 09:49 43.43377 9.49738 35950 ft 511 kts 141°
2026-02-18 09:50 43.38209 9.56440 35995 ft 511 kts 141°
2026-02-18 09:50 43.33036 9.63133 36005 ft 510 kts 141°
2026-02-18 09:51 43.27902 9.69763 36007 ft 510 kts 141°
2026-02-18 09:51 43.22725 9.76438 36010 ft 510 kts 141°
2026-02-18 09:52 43.17548 9.83093 36024 ft 510 kts 141°
2026-02-18 09:52 43.12375 9.89720 36014 ft 509 kts 141°
2026-02-18 09:53 43.07233 9.96291 36025 ft 509 kts 141°
2026-02-18 09:53 42.99468 10.06182 36032 ft 509 kts 141°
2026-02-18 09:54 42.94289 10.12774 36029 ft 509 kts 141°
2026-02-18 09:54 42.89108 10.19344 36021 ft 508 kts 141°
2026-02-18 09:55 42.83962 10.25852 36017 ft 505 kts 141°
2026-02-18 09:55 42.81403 10.29084 35797 ft 501 kts 142°
2026-02-18 09:55 42.78853 10.32371 34280 ft 512 kts 137°
2026-02-18 09:56 42.76576 10.36172 32612 ft 524 kts 126°
2026-02-18 09:56 42.74780 10.40488 31697 ft 521 kts 114°
2026-02-18 09:56 42.73479 10.45003 31113 ft 509 kts 110°
2026-02-18 09:56 42.72208 10.49524 29945 ft 512 kts 112°
2026-02-18 09:57 42.70878 10.53945 29355 ft 499 kts 113°
2026-02-18 09:57 42.68224 10.62402 28092 ft 481 kts 113°
2026-02-18 09:57 42.66921 10.66549 27482 ft 472 kts 113°
2026-02-18 09:58 42.65657 10.70627 26901 ft 464 kts 112°
2026-02-18 09:58 42.64434 10.74635 26336 ft 456 kts 112°
2026-02-18 09:58 42.63232 10.78610 25792 ft 453 kts 112°
2026-02-18 09:58 42.62038 10.82566 25250 ft 452 kts 112°
2026-02-18 09:59 42.60846 10.86508 24704 ft 450 kts 112°
2026-02-18 09:59 42.59654 10.90427 24186 ft 449 kts 112°
2026-02-18 09:59 42.58474 10.94284 23659 ft 448 kts 112°
2026-02-18 09:59 42.57281 10.98176 23076 ft 446 kts 112°
2026-02-18 10:00 42.56091 11.02051 22541 ft 443 kts 112°
2026-02-18 10:00 42.54903 11.05894 22004 ft 441 kts 112°
2026-02-18 10:00 42.53717 11.09719 21458 ft 439 kts 112°
2026-02-18 10:00 42.52541 11.13520 20919 ft 437 kts 112°
2026-02-18 10:01 42.51368 11.17307 20392 ft 434 kts 112°
2026-02-18 10:01 42.49054 11.24795 19523 ft 426 kts 112°
2026-02-18 10:01 42.47930 11.28432 19071 ft 423 kts 112°
2026-02-18 10:02 42.46797 11.32086 18624 ft 419 kts 112°
2026-02-18 10:02 42.45672 11.35695 17966 ft 414 kts 112°
2026-02-18 10:02 42.44559 11.39252 17109 ft 406 kts 112°
2026-02-18 10:02 42.43461 11.42770 16657 ft 403 kts 112°
2026-02-18 10:03 42.42374 11.46256 16140 ft 401 kts 112°
2026-02-18 10:03 42.41293 11.49718 15644 ft 399 kts 112°
2026-02-18 10:03 42.40219 11.53147 15209 ft 395 kts 112°
2026-02-18 10:03 42.39162 11.56516 14804 ft 391 kts 112°
2026-02-18 10:04 42.38104 11.59877 14370 ft 388 kts 113°
2026-02-18 10:04 42.37048 11.63224 13930 ft 385 kts 113°
2026-02-18 10:04 42.36001 11.66541 13477 ft 382 kts 113°
2026-02-18 10:04 42.34973 11.69799 13302 ft 371 kts 112°
2026-02-18 10:05 42.33976 11.72953 13167 ft 359 kts 112°
2026-02-18 10:05 42.32638 11.79160 12902 ft 333 kts 88°
2026-02-18 10:05 42.32907 11.82147 12771 ft 318 kts 70°
2026-02-18 10:06 42.33555 11.84916 12623 ft 300 kts 68°
2026-02-18 10:06 42.34176 11.87556 12248 ft 291 kts 68°
2026-02-18 10:06 42.34704 11.90187 11596 ft 295 kts 83°
2026-02-18 10:06 42.34332 11.92886 11090 ft 293 kts 118°
2026-02-18 10:07 42.33001 11.94933 10331 ft 293 kts 153°
2026-02-18 10:07 42.31136 11.95973 9728 ft 288 kts 165°
2026-02-18 10:07 42.29221 11.96786 9308 ft 289 kts 166°
2026-02-18 10:07 42.27298 11.97559 8898 ft 288 kts 166°
2026-02-18 10:08 42.25337 11.98344 8115 ft 301 kts 166°
2026-02-18 10:08 42.23320 11.99160 7351 ft 312 kts 165°
2026-02-18 10:08 42.21236 12.00023 6563 ft 312 kts 165°
2026-02-18 10:08 42.19192 12.00885 5790 ft 304 kts 163°
2026-02-18 10:09 42.17240 12.01718 5457 ft 282 kts 163°
2026-02-18 10:09 42.14065 12.04036 4782 ft 250 kts 134°
2026-02-18 10:09 42.12926 12.05705 4493 ft 236 kts 134°
2026-02-18 10:10 42.11835 12.07304 4156 ft 234 kts 134°
2026-02-18 10:10 42.10742 12.08905 3930 ft 228 kts 135°
2026-02-18 10:10 42.09700 12.10433 3920 ft 218 kts 135°
2026-02-18 10:10 42.08675 12.11934 3918 ft 217 kts 135°
2026-02-18 10:11 42.07654 12.13427 3913 ft 217 kts 135°
2026-02-18 10:11 42.06632 12.14923 3912 ft 217 kts 135°
2026-02-18 10:11 42.05607 12.16418 3907 ft 217 kts 136°
2026-02-18 10:11 42.04415 12.17623 3890 ft 215 kts 155°
2026-02-18 10:12 42.03061 12.18372 3716 ft 204 kts 162°
2026-02-18 10:12 42.01740 12.18946 3601 ft 197 kts 163°
2026-02-18 10:12 42.00471 12.19480 3342 ft 191 kts 163°
2026-02-18 10:12 41.99216 12.20008 3070 ft 187 kts 164°
2026-02-18 10:13 41.97992 12.20523 2820 ft 182 kts 163°
2026-02-18 10:13 41.95657 12.21506 2339 ft 164 kts 164°
2026-02-18 10:13 41.94615 12.21945 2124 ft 150 kts 164°
2026-02-18 10:14 41.93654 12.22349 1925 ft 140 kts 164°
2026-02-18 10:14 41.92753 12.22727 1742 ft 136 kts 164°
2026-02-18 10:14 41.91861 12.23101 1567 ft 133 kts 164°
2026-02-18 10:14 41.90984 12.23469 1385 ft 132 kts 164°
2026-02-18 10:15 41.90110 12.23836 1196 ft 131 kts 163°
2026-02-18 10:15 41.89241 12.24204 1047 ft 131 kts 161°
2026-02-18 10:15 41.88374 12.24571 857 ft 131 kts 161°
2026-02-18 10:15 41.87503 12.24936 665 ft 132 kts 160°
2026-02-18 10:16 41.86622 12.25303 486 ft 134 kts 160°
2026-02-18 10:16 41.85728 12.25676 325 ft 135 kts 160°
2026-02-18 10:16 41.84835 12.26051 126 ft 134 kts 160°
2026-02-18 10:16 41.83976 12.26407 18 ft 123 kts 160°
2026-02-18 10:17 41.83309 12.26693 12 ft 76 kts 162°
2026-02-18 10:17 41.82662 12.26856 11 ft 36 kts 188°
2026-02-18 10:17 41.82460 12.26791 11 ft 27 kts 191°
2026-02-18 10:18 41.82270 12.26805 11 ft 28 kts 168°
2026-02-18 10:18 41.82082 12.26880 11 ft 29 kts 162°
2026-02-18 10:18 41.81892 12.26961 12 ft 29 kts 162°
2026-02-18 10:18 41.81704 12.27040 12 ft 29 kts 163°
2026-02-18 10:19 41.81513 12.27120 12 ft 29 kts 162°
2026-02-18 10:19 41.81326 12.27197 13 ft 28 kts 162°
2026-02-18 10:19 41.81138 12.27277 12 ft 28 kts 163°
2026-02-18 10:19 41.80953 12.27348 12 ft 28 kts 172°
2026-02-18 10:20 41.80759 12.27317 13 ft 29 kts 190°
2026-02-18 10:20 41.80632 12.27139 13 ft 28 kts 248°
2026-02-18 10:20 41.80562 12.26885 13 ft 30 kts 250°
2026-02-18 10:20 41.80490 12.26626 15 ft 30 kts 249°
2026-02-18 10:21 41.80425 12.26398 17 ft 23 kts 239°
2026-02-18 10:21 41.80120 12.26348 14 ft 25 kts 205°
2026-02-18 10:21 41.79959 12.26248 15 ft 26 kts 204°
2026-02-18 10:22 41.79826 12.26140 14 ft 18 kts 259°
2026-02-18 10:22 41.79865 12.25991 15 ft 16 kts 296°
2026-02-18 10:22 41.79901 12.25862 14 ft 13 kts 261°
2026-02-18 10:22 41.79830 12.25826 14 ft 12 kts 184°
2026-02-18 10:23 41.79756 12.25794 14 ft 11 kts 204°
2026-02-18 10:23 41.79694 12.25755 16 ft 9 kts 206°
2026-02-18 10:23 41.79641 12.25720 14 ft 8 kts 206°
2026-02-18 10:23 41.79612 12.25722 14 ft 4 kts 137°
2026-02-18 10:24 41.79599 12.25753 15 ft 4 kts 117°
2026-02-18 10:24 41.79593 12.25770 14 ft 0 kts 115°